Main page
METAR-TAF:

METAR-TAF

Airports :

Gachsaran, Iran

latitude: 30-26N, longitude: 050-46E, elevation: 738 m

Current weather observation

The report was made 1 hour and 10 minutes ago, at 18:00 UTC
Calm wind
Temperature 6°C
Humidity 81%
Pressure 1019 hPa
Visibility: 7000 m

METAR: OIAH 181800Z 00000KT 7000 NSC 06/03 Q1019

Time: 22:40 (19:10 UTC)


TAF: missing

Weather observations and forecasts of more than 4000 airports (METAR and TAF reports).

The available stations are represented by yellow and red dots on the map.

Hover mouse over dot to see the name of the station.

Then click to see weather observations and forecasts.

To change the map : click on the green buttons with a black cross to zoom in, on the green button with a dash to zoom out, or on the green arrows for adjacent maps.


METAR-TAF: